Total_Precipitation_Accumulation
1.60 1.80 2.28 2.90 3.32 3.85 4.30 4.30 4.10 4.11 4.17 4.22 4.02 4.19 4.39 4.67 4.94 4.86 4.76 4.68 4.58 4.51 4.56 4.58 4.56 4.40 4.29 4.15 4.01 3.95 3.84 3.59 3.38 3.33 2.98 2.55 2.20 2.09 2.04 2.08 2.16 2.18 2.16
1.77 2.05 2.50 2.81 3.21 3.56 3.76 4.08 4.25 4.29 4.05 4.37 4.66 4.92 5.25 5.28 5.57 5.84 5.89 5.70 5.42 5.23 5.07 5.06 4.77 4.45 4.29 4.13 3.93 3.82 3.66 3.34 3.22 3.20 3.23 2.77 2.30 1.87 1.64 1.75 1.76 1.81 1.99
2.03 2.40 2.73 2.86 3.08 3.44 3.72 4.03 4.36 4.49 4.39 4.82 5.32 5.72 6.08 6.01 6.05 6.09 6.10 6.03 5.62 5.27 5.06 4.84 4.68 4.48 4.30 4.12 4.00 3.87 3.72 3.40 3.20 3.12 3.34 3.19 2.74 2.18 1.87 1.71 1.72 1.81 1.91
1.88 2.20 2.52 2.93 2.93 3.17 3.52 3.79 4.19 4.61 4.88 5.24 5.72 6.26 6.59 6.82 6.68 6.34 6.07 5.71 5.27 4.90 4.52 4.36 4.39 4.28 4.07 3.85 3.54 3.41 3.39 3.30 3.11 3.01 2.90 2.88 2.81 2.61 2.28 2.01 1.98 2.01 1.97
1.81 2.00 2.14 2.46 2.69 2.91 3.21 3.55 3.94 4.36 4.97 5.73 6.31 6.74 7.11 7.13 6.62 6.06 5.48 5.05 4.69 4.34 4.07 3.95 4.03 3.93 3.68 3.48 3.20 2.99 2.85 2.83 2.85 2.84 2.76 2.66 2.60 2.44 2.30 2.12 2.03 1.99 1.93
1.88 2.03 2.14 2.39 2.55 2.67 2.94 3.32 3.79 4.19 4.73 5.49 6.14 6.43 6.64 6.59 6.18 5.55 5.00 4.60 4.16 3.77 3.42 3.20 3.14 3.04 2.84 2.74 2.71 2.63 2.59 2.58 2.60 2.61 2.51 2.45 2.43 2.37 2.38 2.25 2.03 1.98 2.02
2.07 2.03 1.99 2.09 2.34 2.49 2.73 3.08 3.50 3.99 4.35 4.75 5.29 5.37 5.43 5.24 4.88 4.67 4.33 3.86 3.45 3.09 2.71 2.48 2.39 2.35 2.31 2.28 2.30 2.30 2.30 2.27 2.32 2.31 2.28 2.24 2.17 2.18 2.35 2.44 2.30 2.14 2.01
1.89 1.91 1.84 2.00 2.27 2.53 2.76 2.97 3.24 3.62 3.95 4.07 4.16 4.07 3.94 3.85 3.73 3.53 3.15 2.81 2.58 2.44 2.30 2.14 2.01 1.98 2.02 2.03 2.11 2.06 1.99 1.96 1.98 1.92 1.97 1.99 1.92 2.03 2.22 2.35 2.52 2.49 2.21
1.69 1.76 1.81 1.93 2.14 2.46 2.61 2.75 2.88 3.02 3.04 3.02 3.02 3.00 2.96 2.84 2.79 2.67 2.38 2.15 2.03 1.92 1.88 1.84 1.80 1.71 1.68 1.65 1.63 1.63 1.64 1.70 1.70 1.65 1.65 1.65 1.66 1.79 1.93 2.09 2.36 2.57 2.47
1.70 1.72 1.83 1.97 1.90 1.97 2.12 2.25 2.36 2.48 2.47 2.35 2.24 2.28 2.26 2.15 2.02 1.88 1.75 1.63 1.58 1.52 1.52 1.46 1.45 1.49 1.50 1.43 1.35 1.31 1.34 1.39 1.46 1.52 1.49 1.46 1.45 1.54 1.58 1.70 1.89 2.17 2.38
1.75 1.66 1.73 1.78 1.65 1.59 1.56 1.67 1.78 1.95 2.03 1.96 1.91 1.93 1.90 1.83 1.70 1.60 1.50 1.42 1.38 1.34 1.30 1.28 1.27 1.24 1.22 1.20 1.22 1.18 1.22 1.32 1.34 1.33 1.36 1.37 1.42 1.49 1.44 1.48 1.61 1.78 2.03
1.74 1.59 1.56 1.62 1.56 1.51 1.40 1.46 1.53 1.51 1.56 1.58 1.70 1.79 1.70 1.64 1.57 1.55 1.51 1.45 1.32 1.30 1.27 1.27 1.19 1.05 1.00 1.08 1.16 1.16 1.12 1.24 1.24 1.22 1.30 1.30 1.33 1.41 1.42 1.50 1.59 1.69 1.88
1.90 1.71 1.55 1.52 1.53 1.45 1.40 1.43 1.46 1.39 1.35 1.35 1.39 1.49 1.51 1.47 1.45 1.33 1.31 1.31 1.29 1.27 1.22 1.17 1.16 1.08 0.96 0.97 0.99 1.03 1.02 1.07 1.14 1.15 1.22 1.26 1.31 1.32 1.35 1.43 1.50 1.62 1.73
1.89 1.67 1.55 1.52 1.43 1.38 1.37 1.38 1.32 1.21 1.21 1.25 1.37 1.38 1.39 1.43 1.46 1.43 1.37 1.31 1.26 1.21 1.17 1.09 1.03 1.02 0.96 0.85 0.81 0.85 0.93 1.02 1.02 1.00 1.10 1.16 1.22 1.24 1.32 1.36 1.44 1.54 1.72
1.84 1.76 1.58 1.47 1.34 1.23 1.21 1.20 1.15 1.05 1.04 1.11 1.24 1.33 1.27 1.25 1.32 1.39 1.31 1.16 1.11 1.03 1.01 0.95 0.91 0.92 0.86 0.74 0.76 0.78 0.81 0.90 0.94 0.93 0.98 1.03 1.05 1.06 1.13 1.14 1.28 1.47 1.66
2.02 1.95 1.77 1.59 1.41 1.28 1.21 1.18 1.11 0.98 0.97 1.02 1.15 1.23 1.22 1.20 1.22 1.26 1.22 1.16 1.10 1.05 1.01 0.98 0.95 0.89 0.77 0.75 0.71 0.70 0.75 0.83 0.93 1.02 1.01 0.93 0.92 0.89 0.84 0.90 1.01 1.21 1.46
2.06 1.98 1.87 1.69 1.49 1.39 1.29 1.30 1.20 1.06 1.07 1.08 1.09 1.15 1.18 1.22 1.23 1.22 1.20 1.20 1.21 1.20 1.10 1.01 0.97 0.91 0.81 0.70 0.59 0.58 0.66 0.84 0.97 1.06 1.04 0.86 0.79 0.89 0.90 0.92 0.93 1.05 1.18
2.22 2.14 1.92 1.73 1.50 1.34 1.28 1.25 1.17 1.09 1.14 1.09 1.05 1.06 1.06 1.08 1.08 1.14 1.19 1.19 1.19 1.13 1.07 1.00 0.96 0.92 0.73 0.62 0.55 0.57 0.62 0.76 0.81 0.83 0.90 0.97 0.97 0.90 0.95 0.95 1.05 1.13 1.23
2.08 2.02 1.83 1.69 1.56 1.40 1.31 1.26 1.20 1.18 1.11 1.04 0.99 0.93 0.87 0.90 0.93 1.00 1.12 1.22 1.20 1.08 0.98 0.91 0.89 0.86 0.72 0.65 0.61 0.61 0.66 0.72 0.69 0.66 0.70 0.77 0.82 0.82 0.89 1.00 1.17 1.23 1.35
1.56 1.53 1.47 1.43 1.41 1.29 1.23 1.23 1.23 1.19 1.08 0.97 0.89 0.81 0.81 0.86 0.88 0.94 1.07 1.15 1.19 1.06 0.88 0.80 0.82 0.78 0.75 0.66 0.57 0.55 0.56 0.67 0.68 0.70 0.75 0.72 0.66 0.71 0.82 1.02 1.27 1.43 1.48
1.32 1.23 1.21 1.27 1.26 1.17 1.19 1.21 1.17 1.09 0.95 0.87 0.82 0.81 0.84 0.90 0.89 1.00 1.10 1.06 0.98 0.95 0.86 0.80 0.80 0.72 0.61 0.52 0.44 0.45 0.50 0.60 0.68 0.75 0.82 0.81 0.68 0.62 0.70 0.91 1.14 1.32 1.37
1.41 1.27 1.23 1.20 1.16 1.15 1.23 1.23 1.13 0.95 0.83 0.80 0.82 0.86 0.85 0.81 0.81 0.96 1.03 0.95 0.92 0.91 0.88 0.85 0.79 0.67 0.55 0.46 0.41 0.37 0.37 0.42 0.62 0.79 0.81 0.81 0.76 0.71 0.77 0.92 1.09 1.22 1.42
1.39 1.31 1.22 1.15 1.09 1.07 1.12 1.12 0.96 0.76 0.70 0.76 0.86 0.88 0.81 0.87 0.88 0.86 0.89 0.91 0.93 0.86 0.79 0.79 0.74 0.66 0.59 0.50 0.39 0.35 0.35 0.40 0.53 0.69 0.76 0.73 0.70 0.80 1.01 1.14 1.24 1.41 1.64
1.20 1.10 1.03 1.00 0.92 0.85 0.82 0.80 0.67 0.62 0.68 0.80 0.86 0.85 0.85 0.93 0.93 0.85 0.74 0.72 0.75 0.73 0.68 0.67 0.63 0.64 0.65 0.53 0.44 0.44 0.44 0.47 0.55 0.68 0.82 0.86 0.86 1.01 1.20 1.34 1.44 1.56 1.66
1.06 0.98 0.91 0.83 0.71 0.66 0.62 0.56 0.52 0.56 0.67 0.73 0.79 0.80 0.79 0.84 0.90 0.81 0.67 0.61 0.55 0.49 0.49 0.50 0.49 0.55 0.54 0.44 0.42 0.41 0.46 0.54 0.60 0.68 0.85 0.98 1.01 1.12 1.27 1.40 1.47 1.53 1.54
0.93 0.93 0.84 0.74 0.65 0.62 0.58 0.53 0.49 0.53 0.65 0.69 0.67 0.63 0.65 0.69 0.73 0.74 0.65 0.47 0.32 0.26 0.24 0.26 0.29 0.31 0.31 0.29 0.30 0.33 0.39 0.46 0.57 0.73 1.00 1.08 1.05 1.09 1.17 1.29 1.40 1.41 1.39